Location: Clyde
(45.1830°S, 169.3170°E)
Time: 03:17:17
(UTC+13:00)

ISS - Pass Details

Date: 28 January 2019
Orbit: 403 x 411 km, 51.6° (Epoch: 16 February)

Event Time Altitude Azimuth Distance (km) Brightness Sun altitude
Exits shadow 05:31:45 - 1° (N) 2,046 -0.6 -9.7°
Reaches altitude 10° 05:34:16 10° 32° (NNE) 1,485 -1.0 -9.4°
Maximum altitude 05:35:13 11° 49° (NE) 1,431 -0.9 -9.2°
Drops below altitude 10° 05:36:09 10° 66° (ENE) 1,489 -0.6 -9.1°
Sets 05:39:36 0° 103° (ESE) 2,359 1.4 -8.6°
